Starlink 30148

operational
NORAD ID: 57617 Int'l Des: 2023-119 Owner: SPXS Country: US Constellation: starlink
LEOCIRCULAR

Über Starlink 30148

Beschreibung wird geladen...

Live-Position

3D-Globus wird geladen...

Nächste Überflüge

Höhenverlauf

Altitude vs Time

uPlot chart will show altitude changes over time

Zweizeiliger Elementsatz

1 57617U 23119R 25352.87583786 .00000383 00000-0 43422-4 0 9994
2 57617 43.0026 161.2291 0001467 260.7161 99.3516 15.02538089130925
Epoch: 18. Dez. 2025 • Age: 10 hours

Aktueller Status

Höhe 560.0 km
Geschwindigkeit 7.58 km/s
Subsatellitenpunkt -7.13°S, 34.91°W
Startdatum 11. Aug. 2023
Alter 2.3 years
Typ internet

Technische Details

Klassifizierung Payload
Masse 730.00 kg
Trockenmasse 700.00 kg
Gesamtmasse 730.00 kg
Länge 0.30 m
Durchmesser 4.10 m
Spannweite 29.00 m
Form Box + pan
Hersteller SPXS
Bus-Typ Starlink V2M
Phasenstatus In Orbit
Besitzer/Staat SPXS/US

Große Konstellationen

Loading constellations...